Torna al catalogo

COSMOS 2251 DEB

AttivoLEO
NORAD 34274·DEBRIS·🇷🇺 Russia

Lanciato Jun 16, 1993 da Plesetsk Cosmodrome

Loading…

Prossimi Passaggi (prossime 24 ore)

TLE

AggiornatoSource: Space-Track

Epoca: Sep 14, 2026, 11:22 UTC

1 34274U 93036LU  26257.47416155  .00003504  00000-0  62213-3 0  9995
2 34274  74.0004 255.9865 0023423 326.3505 188.8021 14.67433090927176

Traccia COSMOS 2251 DEB in tempo reale con AllMySat

Download on the App Store